Location: Prairie State College
(41.5244°N, 87.6382°W)
Time: 17:41:32
(UTC-06:00)

ARGOS Delta rocket - Visible Passes

Search period start: 13 February 2016 00:00
Search period end: 23 February 2016 00:00
Orbit: 635 x 840 km, 96.4° (Epoch: 13 February)

Date Brightness Start Highest point End Pass type
(mag) Time Alt. Az. Time Alt. Az. Time Alt. Az.
13 Feb 7.5 04:38:45 10° ENE 04:39:32 10° E 04:40:17 10° E visible
13 Feb 4.0 06:13:46 10° N 06:18:41 86° WNW 06:23:51 10° SSW visible
14 Feb 5.7 05:29:10 10° NNE 05:33:43 36° E 05:38:27 10° SSE visible
14 Feb 6.4 18:20:11 10° SW 18:23:42 23° W 18:27:15 10° NW visible
15 Feb 7.2 04:45:57 10° ENE 04:48:30 14° E 04:51:05 10° ESE visible
16 Feb 5.3 05:37:48 10° NNE 05:42:36 46° E 05:47:38 10° S visible
16 Feb 6.8 18:29:33 10° SW 18:32:35 18° W 18:35:40 10° NW visible
17 Feb 6.9 04:54:03 10° NE 04:57:27 18° E 05:00:57 10° SE visible
18 Feb 4.8 05:46:30 10° NNE 05:51:30 58° E 05:56:42 10° S visible
18 Feb 7.0 18:39:09 10° WSW 18:41:30 14° W 18:43:53 10° NW visible
19 Feb 6.6 05:02:23 10° NE 05:06:24 23° E 05:10:31 10° SE visible
19 Feb 5.3 17:52:04 10° SSW 17:56:13 41° W 18:00:29 10° NNW visible
20 Feb 4.4 05:55:15 10° NNE 06:00:22 74° E 06:05:42 10° S visible
20 Feb 7.4 18:49:19 10° W 18:50:26 11° W 18:51:34 10° WNW visible
21 Feb 6.2 05:10:52 10° NE 05:15:20 29° E 05:19:55 10° SSE visible
21 Feb 5.9 18:01:08 10° SSW 18:05:04 32° W 18:09:08 10° NNW visible
22 Feb 7.5 04:28:39 10° ENE 04:30:01 11° E 04:31:24 10° ESE visible
22 Feb 4.1 06:04:02 10° N 06:09:13 89° W 06:14:37 10° SSW visible
